Погода Сумы

Погода Сумы : погода сейчас, прогноз погоды и архив. Всё, что Вы хотите узнать о погоде Сумы!

Хотите узнать прогноз погоды Сумы? Тогда Вам сюда: Погода Сумы

Поиск расширенной информации на нашем сайте:

Другие новости

Новости СМИ2

Главная страница сайта

Новости сайта

03.07.2017

Напоминаем, что на нашем специализированном сайте Метеоцентр.Азия вы можете получить высокодетализированные автоматические прогнозы погоды по пунктам России, СНГ и мира в авиационном формате (включающие направление и скорость ветра, видимость, явления погоды, количество и форму облачности, нижнюю и верхнюю границу облачности).

Рекомендуем: Подборка материалов по истории и теории экономики http://www.econbook.ru/

Погода Сумы - сегодня

Время (UTC), дата Ветер
(°,м/с) 
Видим.   Явления Облачность Т
(°С)
Тd
(°С)
f(%) Тe
(°С)
Pmin
(гПа)
dP
(гПа)
Po
(мм)
O2
(г/м3)
Тmin Tmax R s Состояние
почвы
09 22.11.17 310 (СЗ) 10 км    10/6 700 м средняя 
[Sc|Ac und]
-0.6 -5.8 68 -3  1012.5  0.9  742  300           
12 22.11.17 320 (СЗ) 10 км    10/10 750 м 
[Sc]
-0.4 -6.3 64 -3  1012.7  0.2  742  300           
15 22.11.17 330 (СЗ) 10 км    10/10 840 м 
[Sc]
-0.7 -7.1 62 -3  1013.8  743  301           
18 22.11.17 330 (СЗ) 10 км    10/10 900 м 
[Sc]
-0.6 -6.2 66 -2  1015.1  1.3  744  301    -0.3       
21 22.11.17 310 (СЗ) 10 км    10/10 1000 м 
[Sc]
-0.7 -4.9 73 -3  1015.9  0.8  745  301           
00 23.11.17 320 (СЗ) 10 км    ясно 
-2.2 -5.8 76 -3  1016.9  0.8  745  303           
03 23.11.17 330 (СЗ) 10 км    10/10 700 м 
[Sc]
-1.6 -5 78 -4  1017.8  746  303           
06 23.11.17 310 (СЗ) 10 км    10/10 900 м 
[Sc]
-1.7 -5.8 74 -4  1018.3  0.5  746  303  -2.6         
09 23.11.17 320 (СЗ) 10 км    10/5 600 м средняя 
[Sc|Ac und]
-0.2 -7.2 59 -4  1018.6  0.4  747  302           
12 23.11.17 340 (С) 10 км    10/6 840 м кучево-дожд., средняя 
[Cb calv|Ac und]
-0.3 -6.9 61 -3  1018.9  0.3  747  302           
15 23.11.17 320 (СЗ) 10 км    10/10 900 м 
[Sc]
-1.1 -6.9 65 -4  1020.4  1.4  748  303           
18 23.11.17 320 (СЗ) 10 км    10/10 840 м 
[Sc]
-1.3 -6.4 68 -4  1021.1  0.6  749  304    -0.1       
21 23.11.17 340 (С) 10 км    10/10 800 м 
[Sc]
-1.2 -5.9 70 -4  1021.7  0.6  749  304           
00 24.11.17 010 (С) 10 км    10/10 800 м 
[Sc]
-1.2 -5.9 70 -3  1022.1  0.4  749  304           
03 24.11.17 040 (СВ) 10 км  слаб. ливневой снег  10/6 630 м кучево-дожд., средняя 
[Cb calv|Ac und]
-1.7 -6.2 71 -4  1023.1  750  305           
06 24.11.17 040 (СВ) 10 км  {ливн. осадки}  10/6 720 м средняя 
[Sc|Ac und]
-2 -6.2 73 -3  1024.6  1.4  751  306  -2.2    0.0     
09 24.11.17 080 (В) 10 км    10/6 480 м средняя 
[Sc|Ac und]
-1.6 -6.1 71 -4  1025.8  1.2  752  305           
12 24.11.17 150 (ЮВ) 10 км    8/8 660 м 
[Sc]
-1.4 -7 66 -2  1026  0.2  752  305           
15 24.11.17 130 (ЮВ) 10 км    9/9 600 м 
[Sc]
-2.7 -6.8 73 -4  1026.9  0.8  753  307           
18 24.11.17 180 (Ю) 10 км    10/10 540 м 
[Sc]
-2.8 -6.6 75 -4  1027.4  0.5  753  307    -1.2       
21 24.11.17 240 (ЮЗ) 10 км    10/10 540 м 
[Sc]
-2.5 -5.8 78 -5  1027.1  -0.3  753  307           
00 25.11.17 220 (ЮЗ) 10 км    10/10 500 м 
[Sc]
-2.6 -5.9 78 -5  1027.1  753  307           
03 25.11.17 200 (Ю) 10 км    4/0 средняя 
[Ac trans]
-3.2 -5.6 83 -6  1025.9  -1.2  752  307           
06 25.11.17 190 (Ю) 10 км    10/6 360 м средняя 
[St|Ac und]
-2.7 -5 84 -6  1025.3  -0.6  752  306  -3.6         
09 25.11.17 180 (Ю) 2000 м  слаб. морось  10/10 210 м 
[St]
-2.4 -3 96 -6  1024.5  -0.7  751  306           
Время (UTC), дата Ветер
(°,м/с) 
Видим.   Явления Облачность Т
(°С)
Тd
(°С)
f(%) Тe
(°С)
Pmin
(гПа)
dP
(гПа)
Po
(мм)
O2
(г/м3)
Тmin Tmax R s Состояние
почвы

Для получения пояснительной информации подведите курсор к названию столбца.

ПОГОДА Сумы - архив

Всё, что Вы хотите узнать о погоде Сумы - удобно и подробно!

Выберите нужную дату (начиная с 1 января 2015* года) и нажмите кнопку "Найти".
Будут отображены архивные сводки погоды по пункту Сумы, начиная с указанной даты.


Отображать данные в формате CSV (для использования в таблицах Excel)


Внимание! Наш архив погоды предназначен исключительно для личного некоммерческого использования в познавательных целях. Если Вам необходимы официальные справки о состоянии погоды (для производственных, юридических, коммерческих и т.п. целей), обращайтесь в органы Росгидромета.

*Примечание: данная дата относится к архиву по метеостанциям СССР (Россия, СНГ, Балтия).
Архив по метеостанциям Зарубежной Европы и Азии (кроме Китая) хранится 10 дней, по другим регионам земного шара (Китай, Африка, Америка, Австралия, Океания) - 1 день.

Сумы - район местоположения метеостанции


Название, широта, долгота, высота метеостанции:
Сумы 50.9°ш. 34.7°д. 181 м над ур. моря [Украина]

Дополнительная информация

В oтличие oт бoльшинства пoгoдных сайтoв мы публикуем пoдрoбную метеoинфoрмацию в детальнoм прoфессиoнальнoм фoрмате.

Характеристики температуры и влажнoсти вoздуха измеряются на высoте 2 м в тени вдали oт зданий и деревьев.
Скoрoсть ветра измеряется на высoте 10 м (на урoвне рoста челoвека скoрoсть ветра ниже в 1.5-2 раза). Если метеoстанция нахoдится в гoрoде или в лесу, тo скoрoсть ветра занижена на 2-4 м/с пo сравнению с oткрытым местoм. Скoрoсть ветра над акватoриями крупных рек и oзёр, а также на вершинах хoлмoв на 2-5 м/с выше, чем в oбычных услoвиях.
Атмoсфернoе давление в разных тoчках местнoсти мoжет значительнo oтличаться oт давления на метеoстанции, в зависимoсти oт услoвий рельефа (при пoдъёме на 10 м давление пoнижается примернo на 1 мм рт.ст.).